Погода в Свиднице

Польша     50°50′32″N   16°29′22″E
темп.,
°C
ветер,
м/с
пор.,
м/с
влажн.,
%
обл.,
%
осадки,
мм/ч
давл.,
гПа
погр.,
м
1 марта, пн
пн101:00+3ссз479381 0.0 1036443
04:00+2с3493100 0.0 1035330
07:00+1св119398 0.0 1036130
10:00+3ссв0082100 0.0 1037320
13:00+6всв217168 0.0 1037401
16:00+6всв11721 0.0 1035363
19:00+3юв11891 0.0 103622
22:00+3юз11890 0.0 103622
2 марта, вт
вт201:00+3юз11840 0.0 103622
04:00+2юз12820 0.0 103522
07:00+2юз22800 0.0 103622
10:00+8зсз11600 0.0 1035239
13:00+12зсз12470 0.0 1034519
16:00+11ссв11550 0.0 1033277
19:00+6юз11720 0.0 103322
22:00+5юз12740 0.0 103422
3 марта, ср
ср301:00+4юз11740 0.0 103422
04:00+3юз22690 0.0 103222
07:00+3юз22660 0.0 103123
10:00+9юз23540 0.0 1030244
13:00+12юз244013 0.0 1028561
16:00+9юз385769 0.0 1025504
19:00+5юз337945 0.0 102565
22:00+4юз34812 0.0 102459
4 марта, чт
чт401:00+4юз44834 0.0 102274
04:00+3юз348649 0.0 102072
07:00+2юз349060 0.0 101889
10:00+6юз3577100 0.0 1016278
13:00+10юз466598 0.0 1015782
16:00+10зюз3668100 0.0 1012600
19:00+7зсз2688100 0.9 1011372
22:00+4сз5994100 4.9 1012620
5 марта, пт
пт501:00+3сз4892100 5.3 1012666
04:00+1ссз5997100 1.8 1014470
07:00−2с61096100 4.4 1017679
10:00−1с6882100 1.0 10201042
13:000с6868100 1.3 10221407
16:000ссз575967 0.3 10231572
19:00−2сз387758 0.5 1025490
22:00−3зсз357564 0.1 1027157